Flag for Germany Weather past 2 weeks in Hamburg, Hamburg, Germany

Now
41 °F

Snow flurries. Partly sunny.


Feels Like: 30 °F
Forecast: 38 / 46 °F
Wind: 29 mph from Northwest

Location: Hamburg-Fuhlsbuettel

Current Time: Mar 30, 2015 at 6:39:27 PM

Latest Report: Mar 30, 2015 at 6:20 PM


Visibility: N/A

Pressure: 29.56 "Hg

Humidity: 87%

Dew point: 37 °F

Location of HamburgLocation

Historic Weather in Hamburg — Graph

°F

Hamburg temperature yesterday

Maximum temperature yesterday: 50 °F (at 12:50 AM)
Minimum temperature yesterday: 43 °F (at 11:50 PM)
Average temperature yesterday: 48 °F

Past Weeks' High & Low Weather Summary

 TemperatureHumidityPressure
High59 °F (Mar 17, 2:50 PM)100% (Mar 20, 6:20 AM)30.45 "Hg (Mar 20, 6:20 AM)
Low28 °F (Mar 20, 6:20 AM)27% (Mar 19, 2:50 PM)28.91 "Hg (Mar 29, 10:20 PM)
Average44 °F74%29.99 "Hg
* Reported Mar 15 4:20 PM — Mar 30 5:20 PM, Hamburg, Weather by CustomWeather, © 2015

Note: Actual official high and low records may vary slightly from our data, if they occured in-between our weather recording intervals... More about our weather records

Advertising

Hamburg weather history for previous 24 hours

 ConditionsComfort  
Time TempWeatherWind HumidityBarometerVisibility
5:20 PM
Mon, Mar 30
45 °FSprinkles. Partly sunny.31 mph71%29.50 "HgN/A
4:50 PM45 °FPartly sunny.28 mph66%29.50 "HgN/A
4:20 PM43 °FScattered showers. Partly sunny.28 mph71%29.47 "HgN/A
3:50 PM45 °FScattered showers. Partly sunny.32 mph66%29.45 "HgN/A
3:20 PM45 °FScattered showers. Partly sunny.36 mph71%29.45 "HgN/A
2:50 PM46 °FScattered showers. Partly sunny.29 mph71%29.42 "HgN/A
2:20 PM46 °FPartly sunny.29 mph66%29.39 "HgN/A
1:50 PM45 °FScattered showers. Partly sunny.28 mph76%29.39 "HgN/A
1:20 PM45 °FScattered showers. Partly sunny.31 mph76%29.36 "HgN/A
12:50 PM43 °FSprinkles. Partly sunny.31 mph81%29.33 "HgN/A
12:20 PM43 °FScattered showers. Partly sunny.28 mph87%29.30 "HgN/A
11:50 AM43 °FSprinkles. Partly sunny.21 mph87%29.27 "HgN/A
11:20 AM43 °FSprinkles. Partly sunny.21 mph87%29.27 "HgN/A
10:50 AM41 °FSprinkles. Partly sunny.21 mph93%29.24 "HgN/A
10:20 AM41 °FSprinkles. Partly sunny.17 mph93%29.21 "Hg6 mi
9:50 AM41 °FSprinkles. Partly sunny.21 mph93%29.21 "HgN/A
9:20 AM41 °FSprinkles. Broken clouds.18 mph87%29.21 "HgN/A
8:50 AM41 °FSprinkles. Broken clouds.18 mph87%29.21 "HgN/A
8:20 AM41 °FSprinkles. Broken clouds.14 mph87%29.18 "HgN/A
7:50 AM39 °FSprinkles. Passing clouds.15 mph93%29.18 "HgN/A
7:20 AM41 °FRain showers. Partly cloudy.17 mph93%29.18 "HgN/A
6:50 AM39 °FSprinkles. Passing clouds.14 mph93%29.15 "HgN/A
6:20 AM39 °FSprinkles. Passing clouds.16 mph93%29.15 "HgN/A
5:50 AM43 °FPassing clouds.13 mph81%29.15 "HgN/A
5:20 AM43 °FPassing clouds.17 mph81%29.15 "HgN/A
4:50 AM41 °FPartly cloudy.16 mph93%29.15 "HgN/A
4:20 AM41 °FSprinkles. Partly cloudy.20 mph93%29.15 "HgN/A
3:50 AM43 °FPartly cloudy.22 mph87%29.12 "HgN/A
3:20 AM43 °FPartly cloudy.21 mph87%29.12 "HgN/A
2:50 AM43 °FPartly cloudy.22 mph87%29.12 "HgN/A
2:20 AM43 °FPassing clouds.24 mph87%29.12 "HgN/A
1:50 AM43 °FPassing clouds.17 mph93%29.09 "HgN/A
1:20 AM41 °FRain. Passing clouds.17 mph93%29.09 "Hg6 mi
12:50 AM41 °FPartly cloudy.20 mph93%29.06 "HgN/A
12:20 AM41 °FPassing clouds.22 mph93%29.03 "HgN/A
11:50 PM
Sun, Mar 29
43 °FPassing clouds.25 mph87%29.00 "HgN/A
11:20 PM45 °FPartly cloudy.26 mph93%28.94 "HgN/A
10:50 PM48 °FPartly cloudy.20 mph94%28.91 "HgN/A
10:20 PM48 °FPassing clouds.15 mph94%28.91 "HgN/A
9:50 PM48 °FPassing clouds.10 mph100%28.94 "Hg5 mi
9:20 PM48 °FLight rain. Partly cloudy.8 mph94%28.94 "Hg5 mi
8:50 PM48 °FLight rain. Partly cloudy.13 mph94%28.97 "Hg5 mi
8:20 PM46 °FRain. Partly sunny.16 mph100%29.03 "Hg3 mi
7:50 PM46 °FRain. Partly sunny.13 mph100%29.06 "Hg3 mi
7:20 PM46 °FLight rain. Partly sunny.14 mph100%29.09 "Hg5 mi
6:50 PM46 °FLight rain. Partly sunny.10 mph93%29.12 "Hg5 mi
6:20 PM46 °FLight rain. Broken clouds.9 mph87%29.18 "HgN/A
Weather by CustomWeather, © 2015

See weather overviewHow to use our weather pages